Location: Sabalos
(43.2860°N, 0.1414°E)
Time: 21:04:40
(UTC+00:00)

CZ-2C R/B - Pass Details

Date: 05 July 2020
Orbit: 640 x 704 km, 98.4° (Epoch: 14 August)

Event Time Altitude Azimuth Distance (km) Brightness Sun altitude
Rises 20:20:17 0° 11° (NNE) 3,094 7.6 -6.4°
Reaches altitude 10° 20:22:32 10° 10° (N) 2,176 6.8 -6.7°
Maximum altitude 20:27:18 77° 285° (WNW) 728 4.1 -7.4°
Drops below altitude 10° 20:32:03 10° 201° (SSW) 2,165 6.1 -8.0°
Sets 20:34:18 0° 199° (SSW) 3,076 6.9 -8.3°
